Time,TemperatureF,DewpointF,PressureIn,WindDirection,WindDirectionDegrees,WindSpeedMPH,WindSpeedGustMPH,Humidity,HourlyPrecipIn,Conditions,Clouds,dailyrainin,SolarRadiationWatts/m^2,SoftwareType,DateUTC
2013-01-15 00:02:00,29.0,29.0,-100.00,NW,316,6.0,15.0,100,0.00,,,0.00,0.000000,,2013-01-15 08:02:00,
2013-01-15 00:12:00,29.0,29.0,-100.00,NW,316,6.0,15.0,100,0.00,,,0.00,0.000000,,2013-01-15 08:12:00,
2013-01-15 00:33:00,30.0,30.0,-100.00,NW,319,5.0,11.0,100,0.00,,,0.00,0.000000,,2013-01-15 08:33:00,
2013-01-15 00:43:00,30.0,30.0,-100.00,NW,319,5.0,11.0,100,0.00,,,0.00,0.000000,,2013-01-15 08:43:00,
2013-01-15 00:53:00,30.0,30.0,-100.00,NW,319,5.0,11.0,100,0.00,,,0.00,0.000000,,2013-01-15 08:53:00,
2013-01-15 01:02:00,30.0,30.0,-100.00,NW,319,5.0,11.0,100,0.00,,,0.00,0.000000,,2013-01-15 09:02:00,
2013-01-15 01:11:00,30.0,30.0,-100.00,NW,319,5.0,11.0,100,0.00,,,0.00,0.000000,,2013-01-15 09:11:00,
2013-01-15 01:42:00,29.0,29.0,-100.00,NW,316,4.0,11.0,100,0.00,,,0.00,0.000000,,2013-01-15 09:42:00,
2013-01-15 01:52:00,29.0,29.0,-100.00,NW,316,4.0,11.0,100,0.00,,,0.00,0.000000,,2013-01-15 09:52:00,
2013-01-15 02:02:00,29.0,29.0,-100.00,NW,316,4.0,11.0,100,0.00,,,0.00,0.000000,,2013-01-15 10:02:00,
2013-01-15 02:11:00,29.0,29.0,-100.00,NW,316,4.0,11.0,100,0.00,,,0.00,0.000000,,2013-01-15 10:11:00,
2013-01-15 02:33:00,29.0,29.0,-100.00,NW,322,4.0,10.0,100,0.00,,,0.00,0.000000,,2013-01-15 10:33:00,
2013-01-15 02:42:00,29.0,29.0,-100.00,NW,322,4.0,10.0,100,0.00,,,0.00,0.000000,,2013-01-15 10:42:00,
2013-01-15 02:52:00,29.0,29.0,-100.00,NW,322,4.0,10.0,100,0.00,,,0.00,0.000000,,2013-01-15 10:52:00,
2013-01-15 03:02:00,29.0,29.0,-100.00,NW,322,4.0,10.0,100,0.00,,,0.00,0.000000,,2013-01-15 11:02:00,
2013-01-15 03:12:00,29.0,29.0,-100.00,NW,322,4.0,10.0,100,0.00,,,0.00,0.000000,,2013-01-15 11:12:00,
2013-01-15 03:33:00,28.0,28.0,-100.00,NW,321,3.0,7.0,100,0.00,,,0.00,0.000000,,2013-01-15 11:33:00,
2013-01-15 03:43:00,28.0,28.0,-100.00,NW,321,3.0,7.0,100,0.00,,,0.00,0.000000,,2013-01-15 11:43:00,
2013-01-15 03:53:00,28.0,28.0,-100.00,NW,321,3.0,7.0,100,0.00,,,0.00,0.000000,,2013-01-15 11:53:00,
2013-01-15 04:02:00,28.0,28.0,-100.00,NW,321,3.0,7.0,100,0.00,,,0.00,0.000000,,2013-01-15 12:02:00,
2013-01-15 04:12:00,28.0,28.0,-100.00,NW,321,3.0,7.0,100,0.00,,,0.00,0.000000,,2013-01-15 12:12:00,
2013-01-15 04:33:00,29.0,29.0,-100.00,NW,315,3.0,9.0,100,0.00,,,0.00,0.000000,,2013-01-15 12:33:00,
2013-01-15 04:43:00,29.0,29.0,-100.00,NW,315,3.0,9.0,100,0.00,,,0.00,0.000000,,2013-01-15 12:43:00,
2013-01-15 04:53:00,29.0,29.0,-100.00,NW,315,3.0,9.0,100,0.00,,,0.00,0.000000,,2013-01-15 12:53:00,
2013-01-15 05:02:00,29.0,29.0,-100.00,NW,315,3.0,9.0,100,0.00,,,0.00,0.000000,,2013-01-15 13:02:00,
2013-01-15 05:11:00,29.0,29.0,-100.00,NW,315,3.0,9.0,100,0.00,,,0.00,0.000000,,2013-01-15 13:11:00,
2013-01-15 05:33:00,29.0,29.0,-100.00,NW,316,4.0,8.0,100,0.00,,,-99.99,0.000000,,2013-01-15 13:33:00,
2013-01-15 05:43:00,29.0,29.0,-100.00,NW,316,4.0,8.0,100,0.00,,,-99.99,0.000000,,2013-01-15 13:43:00,
2013-01-15 05:53:00,29.0,29.0,-100.00,NW,316,4.0,8.0,100,0.00,,,-99.99,0.000000,,2013-01-15 13:53:00,
2013-01-15 06:02:00,29.0,29.0,-100.00,NW,316,4.0,8.0,100,0.00,,,-99.99,0.000000,,2013-01-15 14:02:00,
2013-01-15 06:12:00,29.0,29.0,-100.00,NW,316,4.0,8.0,100,0.00,,,-99.99,0.000000,,2013-01-15 14:12:00,
2013-01-15 06:33:00,29.0,29.0,-100.00,WNW,301,4.0,11.0,100,0.00,,,0.00,0.000000,,2013-01-15 14:33:00,
2013-01-15 06:43:00,29.0,29.0,-100.00,WNW,301,4.0,11.0,100,0.00,,,0.00,0.000000,,2013-01-15 14:43:00,
2013-01-15 06:53:00,29.0,29.0,-100.00,WNW,301,4.0,11.0,100,0.00,,,0.00,0.000000,,2013-01-15 14:53:00,
2013-01-15 07:03:00,29.0,29.0,-100.00,WNW,301,4.0,11.0,100,0.00,,,0.00,0.000000,,2013-01-15 15:03:00,
2013-01-15 07:12:00,29.0,29.0,-100.00,WNW,301,4.0,11.0,100,0.00,,,0.00,0.000000,,2013-01-15 15:12:00,
2013-01-15 07:33:00,29.0,29.0,-100.00,WNW,303,4.0,8.0,100,0.00,,,0.00,0.000000,,2013-01-15 15:33:00,
2013-01-15 07:43:00,29.0,29.0,-100.00,WNW,303,4.0,8.0,100,0.00,,,0.00,0.000000,,2013-01-15 15:43:00,
2013-01-15 07:53:00,29.0,29.0,-100.00,WNW,303,4.0,8.0,100,0.00,,,0.00,0.000000,,2013-01-15 15:53:00,
2013-01-15 08:02:00,29.0,29.0,-100.00,WNW,303,4.0,8.0,100,0.00,,,0.00,0.000000,,2013-01-15 16:02:00,
2013-01-15 08:11:00,29.0,29.0,-100.00,WNW,303,4.0,8.0,100,0.00,,,0.00,0.000000,,2013-01-15 16:11:00,
2013-01-15 08:33:00,29.0,29.0,-100.00,NW,313,4.0,8.0,100,0.00,,,0.00,5.000000,,2013-01-15 16:33:00,
2013-01-15 08:43:00,29.0,29.0,-100.00,NW,313,4.0,8.0,100,0.00,,,0.00,5.000000,,2013-01-15 16:43:00,
2013-01-15 08:53:00,29.0,29.0,-100.00,NW,313,4.0,8.0,100,0.00,,,0.00,5.000000,,2013-01-15 16:53:00,
2013-01-15 09:03:00,29.0,29.0,-100.00,NW,313,4.0,8.0,100,0.00,,,0.00,5.000000,,2013-01-15 17:03:00,
2013-01-15 09:12:00,29.0,29.0,-100.00,NW,313,4.0,8.0,100,0.00,,,0.00,5.000000,,2013-01-15 17:12:00,
2013-01-15 09:43:00,31.0,31.0,-100.00,NW,319,3.0,7.0,100,0.00,,,0.00,72.000000,,2013-01-15 17:43:00,
2013-01-15 09:53:00,31.0,31.0,-100.00,NW,319,3.0,7.0,100,0.00,,,0.00,72.000000,,2013-01-15 17:53:00,
2013-01-15 10:02:00,31.0,31.0,-100.00,NW,319,3.0,7.0,100,0.00,,,0.00,72.000000,,2013-01-15 18:02:00,
2013-01-15 10:12:00,31.0,31.0,-100.00,NW,319,3.0,7.0,100,0.00,,,0.00,72.000000,,2013-01-15 18:12:00,
2013-01-15 10:33:00,31.0,31.0,-100.00,NNW,340,4.0,7.0,100,0.00,,,0.00,177.000000,,2013-01-15 18:33:00,
2013-01-15 10:43:00,31.0,31.0,-100.00,NNW,340,4.0,7.0,100,0.00,,,0.00,177.000000,,2013-01-15 18:43:00,
2013-01-15 10:53:00,31.0,31.0,-100.00,NNW,340,4.0,7.0,100,0.00,,,0.00,177.000000,,2013-01-15 18:53:00,
2013-01-15 11:03:00,31.0,31.0,-100.00,NNW,340,4.0,7.0,100,0.00,,,0.00,177.000000,,2013-01-15 19:03:00,
2013-01-15 11:12:00,31.0,31.0,-100.00,NNW,340,4.0,7.0,100,0.00,,,0.00,177.000000,,2013-01-15 19:12:00,
2013-01-15 11:33:00,33.0,33.0,-100.00,NW,310,5.0,8.0,100,0.00,,,0.00,239.000000,,2013-01-15 19:33:00,
2013-01-15 11:43:00,33.0,33.0,-100.00,NW,310,5.0,8.0,100,0.00,,,0.00,239.000000,,2013-01-15 19:43:00,
2013-01-15 11:53:00,33.0,33.0,-100.00,NW,310,5.0,8.0,100,0.00,,,0.00,239.000000,,2013-01-15 19:53:00,
2013-01-15 12:03:00,33.0,33.0,-100.00,NW,310,5.0,8.0,100,0.00,,,0.00,239.000000,,2013-01-15 20:03:00,
2013-01-15 12:12:00,33.0,33.0,-100.00,NW,310,5.0,8.0,100,0.00,,,0.00,239.000000,,2013-01-15 20:12:00,
2013-01-15 12:33:00,34.0,33.0,-100.00,NNW,341,4.0,9.0,96,0.00,,,-99.99,314.000000,,2013-01-15 20:33:00,
2013-01-15 12:43:00,34.0,33.0,-100.00,NNW,341,4.0,9.0,96,0.00,,,-99.99,314.000000,,2013-01-15 20:43:00,
2013-01-15 12:53:00,34.0,33.0,-100.00,NNW,341,4.0,9.0,96,0.00,,,-99.99,314.000000,,2013-01-15 20:53:00,
2013-01-15 13:02:00,34.0,33.0,-100.00,NNW,341,4.0,9.0,96,0.00,,,-99.99,314.000000,,2013-01-15 21:02:00,
2013-01-15 13:12:00,34.0,33.0,-100.00,NNW,341,4.0,9.0,96,0.00,,,-99.99,314.000000,,2013-01-15 21:12:00,
2013-01-15 13:34:00,39.0,35.0,-100.00,SSE,161,4.0,7.0,84,0.00,,,0.00,359.000000,,2013-01-15 21:34:00,
2013-01-15 13:43:00,39.0,35.0,-100.00,SSE,161,4.0,7.0,84,0.00,,,0.00,359.000000,,2013-01-15 21:43:00,
2013-01-15 13:53:00,39.0,35.0,-100.00,SSE,161,4.0,7.0,84,0.00,,,0.00,359.000000,,2013-01-15 21:53:00,
2013-01-15 14:02:00,39.0,35.0,-100.00,SSE,161,4.0,7.0,84,0.00,,,0.00,359.000000,,2013-01-15 22:02:00,
2013-01-15 14:11:00,39.0,35.0,-100.00,SSE,161,4.0,7.0,84,0.00,,,0.00,359.000000,,2013-01-15 22:11:00,
2013-01-15 14:33:00,42.0,35.0,-100.00,NE,41,3.0,6.0,75,0.00,,,0.00,327.000000,,2013-01-15 22:33:00,
2013-01-15 14:43:00,42.0,35.0,-100.00,NE,41,3.0,6.0,75,0.00,,,0.00,327.000000,,2013-01-15 22:43:00,
2013-01-15 14:53:00,42.0,35.0,-100.00,NE,41,3.0,6.0,75,0.00,,,0.00,327.000000,,2013-01-15 22:53:00,
2013-01-15 15:02:00,42.0,35.0,-100.00,NE,41,3.0,6.0,75,0.00,,,0.00,327.000000,,2013-01-15 23:02:00,
2013-01-15 15:12:00,42.0,35.0,-100.00,NE,41,3.0,6.0,75,0.00,,,0.00,327.000000,,2013-01-15 23:12:00,
2013-01-15 15:43:00,41.0,35.0,-100.00,South,185,2.0,7.0,78,0.00,,,0.00,222.000000,,2013-01-15 23:43:00,
2013-01-15 15:53:00,41.0,35.0,-100.00,South,185,2.0,7.0,78,0.00,,,0.00,222.000000,,2013-01-15 23:53:00,
2013-01-15 16:02:00,41.0,35.0,-100.00,South,185,2.0,7.0,78,0.00,,,0.00,222.000000,,2013-01-16 00:02:00,
2013-01-15 16:12:00,41.0,35.0,-100.00,South,185,2.0,7.0,78,0.00,,,0.00,222.000000,,2013-01-16 00:12:00,
2013-01-15 16:33:00,40.0,34.0,-100.00,NW,321,2.0,5.0,79,0.00,,,0.00,72.000000,,2013-01-16 00:33:00,
2013-01-15 16:43:00,40.0,34.0,-100.00,NW,321,2.0,5.0,79,0.00,,,0.00,72.000000,,2013-01-16 00:43:00,
2013-01-15 16:53:00,40.0,34.0,-100.00,NW,321,2.0,5.0,79,0.00,,,0.00,72.000000,,2013-01-16 00:53:00,
2013-01-15 17:02:00,40.0,34.0,-100.00,NW,321,2.0,5.0,79,0.00,,,0.00,72.000000,,2013-01-16 01:02:00,
2013-01-15 17:12:00,40.0,34.0,-100.00,NW,321,2.0,5.0,79,0.00,,,0.00,72.000000,,2013-01-16 01:12:00,
2013-01-15 17:33:00,32.0,32.0,-100.00,North,7,3.0,5.0,100,0.00,,,-99.99,12.000000,,2013-01-16 01:33:00,
2013-01-15 17:43:00,32.0,32.0,-100.00,North,7,3.0,5.0,100,0.00,,,-99.99,12.000000,,2013-01-16 01:43:00,
2013-01-15 17:53:00,32.0,32.0,-100.00,North,7,3.0,5.0,100,0.00,,,-99.99,12.000000,,2013-01-16 01:53:00,
2013-01-15 18:02:00,32.0,32.0,-100.00,North,7,3.0,5.0,100,0.00,,,-99.99,12.000000,,2013-01-16 02:02:00,
2013-01-15 18:12:00,32.0,32.0,-100.00,North,7,3.0,5.0,100,0.00,,,-99.99,12.000000,,2013-01-16 02:12:00,
2013-01-15 18:43:00,32.0,32.0,-100.00,NNW,329,3.0,6.0,100,0.00,,,0.00,0.000000,,2013-01-16 02:43:00,
2013-01-15 18:53:00,32.0,32.0,-100.00,NNW,329,3.0,6.0,100,0.00,,,0.00,0.000000,,2013-01-16 02:53:00,
2013-01-15 19:02:00,32.0,32.0,-100.00,NNW,329,3.0,6.0,100,0.00,,,0.00,0.000000,,2013-01-16 03:02:00,
2013-01-15 19:11:00,32.0,32.0,-100.00,NNW,329,3.0,6.0,100,0.00,,,0.00,0.000000,,2013-01-16 03:11:00,
2013-01-15 19:33:00,30.0,30.0,-100.00,NW,309,3.0,7.0,100,0.00,,,0.00,0.000000,,2013-01-16 03:33:00,
2013-01-15 19:43:00,30.0,30.0,-100.00,NW,309,3.0,7.0,100,0.00,,,0.00,0.000000,,2013-01-16 03:43:00,
2013-01-15 19:53:00,30.0,30.0,-100.00,NW,309,3.0,7.0,100,0.00,,,0.00,0.000000,,2013-01-16 03:53:00,
2013-01-15 20:02:00,30.0,30.0,-100.00,NW,309,3.0,7.0,100,0.00,,,0.00,0.000000,,2013-01-16 04:02:00,
2013-01-15 20:11:00,30.0,30.0,-100.00,NW,309,3.0,7.0,100,0.00,,,0.00,0.000000,,2013-01-16 04:11:00,
2013-01-15 20:33:00,31.0,31.0,-100.00,West,271,3.0,6.0,100,0.00,,,0.00,0.000000,,2013-01-16 04:33:00,
2013-01-15 20:42:00,31.0,31.0,-100.00,West,271,3.0,6.0,100,0.00,,,0.00,0.000000,,2013-01-16 04:42:00,
2013-01-15 20:52:00,31.0,31.0,-100.00,West,271,3.0,6.0,100,0.00,,,0.00,0.000000,,2013-01-16 04:52:00,
2013-01-15 21:03:00,31.0,31.0,-100.00,West,271,3.0,6.0,100,0.00,,,0.00,0.000000,,2013-01-16 05:03:00,
2013-01-15 21:12:00,31.0,31.0,-100.00,West,271,3.0,6.0,100,0.00,,,0.00,0.000000,,2013-01-16 05:12:00,
2013-01-15 21:33:00,28.0,28.0,-100.00,NW,319,3.0,6.0,100,0.00,,,0.00,0.000000,,2013-01-16 05:33:00,
2013-01-15 21:42:00,28.0,28.0,-100.00,NW,319,3.0,6.0,100,0.00,,,0.00,0.000000,,2013-01-16 05:42:00,
2013-01-15 21:53:00,28.0,28.0,-100.00,NW,319,3.0,6.0,100,0.00,,,0.00,0.000000,,2013-01-16 05:53:00,
2013-01-15 22:02:00,28.0,28.0,-100.00,NW,319,3.0,6.0,100,0.00,,,0.00,0.000000,,2013-01-16 06:02:00,
2013-01-15 22:11:00,28.0,28.0,-100.00,NW,319,3.0,6.0,100,0.00,,,0.00,0.000000,,2013-01-16 06:11:00,
2013-01-15 22:33:00,28.0,28.0,-100.00,NNW,333,6.0,10.0,100,0.00,,,0.00,0.000000,,2013-01-16 06:33:00,
2013-01-15 22:43:00,28.0,28.0,-100.00,NNW,333,6.0,10.0,100,0.00,,,0.00,0.000000,,2013-01-16 06:43:00,
2013-01-15 22:53:00,28.0,28.0,-100.00,NNW,333,6.0,10.0,100,0.00,,,0.00,0.000000,,2013-01-16 06:53:00,
2013-01-15 23:02:00,28.0,28.0,-100.00,NNW,333,6.0,10.0,100,0.00,,,0.00,0.000000,,2013-01-16 07:02:00,
2013-01-15 23:11:00,28.0,28.0,-100.00,NNW,333,6.0,10.0,100,0.00,,,0.00,0.000000,,2013-01-16 07:11:00,
2013-01-15 23:33:00,28.0,28.0,-100.00,NNW,329,5.0,9.0,100,0.00,,,0.00,0.000000,,2013-01-16 07:33:00,
2013-01-15 23:42:00,28.0,28.0,-100.00,NNW,329,5.0,9.0,100,0.00,,,0.00,0.000000,,2013-01-16 07:42:00,
2013-01-15 23:52:00,28.0,28.0,-100.00,NNW,329,5.0,9.0,100,0.00,,,0.00,0.000000,,2013-01-16 07:52:00,